,,Stat6,,Stat2,,Stat8,,Stat9,,Stat10,,Wind1,,Wind1,
time,status,PA1M_AVG,status,PR1M_SUM,status,RH1M_AVG,status,SR1M_AVG,status,TA1M_AVG,status,W1dAve1m,status,W1sAve1m,
2009-04-25, 00:00:00,VALID,919.3,VALID,0,VALID,98.1119,VALID,0.0339617,VALID,19.0592,VALID,143,VALID,0,
2009-04-25, 00:01:00,VALID,919.283,VALID,0,VALID,98.1412,VALID,0.0679233,VALID,19.0595,VALID,146,VALID,0,
2009-04-25, 00:02:00,VALID,919.271,VALID,0,VALID,98.2365,VALID,0.0679233,VALID,19.053,VALID,148,VALID,0,
2009-04-25, 00:03:00,VALID,919.278,VALID,0,VALID,98.2912,VALID,0,VALID,19.0535,VALID,153,VALID,0,
2009-04-25, 00:04:00,VALID,919.281,VALID,0,VALID,98.2632,VALID,0.0509425,VALID,19.0305,VALID,153,VALID,0,
2009-04-25, 00:05:00,VALID,919.287,VALID,0,VALID,98.2429,VALID,0,VALID,19.0245,VALID,153,VALID,0,
2009-04-25, 00:06:00,VALID,919.285,VALID,0,VALID,98.1653,VALID,0.0169808,VALID,18.9629,VALID,153,VALID,0,
2009-04-25, 00:07:00,VALID,919.287,VALID,0,VALID,98.4044,VALID,0.0169808,VALID,18.9235,VALID,153,VALID,0,
2009-04-25, 00:08:00,VALID,919.301,VALID,0,VALID,98.6422,VALID,0,VALID,18.9402,VALID,153,VALID,0,
2009-04-25, 00:09:00,VALID,919.307,VALID,0,VALID,98.571,VALID,0.0169808,VALID,18.914,VALID,153,VALID,0,
2009-04-25, 00:10:00,VALID,919.301,VALID,0,VALID,98.7554,VALID,0.0169808,VALID,18.8718,VALID,149,VALID,0,
2009-04-25, 00:11:00,VALID,919.308,VALID,0,VALID,98.9779,VALID,0,VALID,18.8588,VALID,133,VALID,0,
2009-04-25, 00:12:00,VALID,919.315,VALID,0,VALID,98.9067,VALID,0.0169808,VALID,18.7835,VALID,133,VALID,0,
2009-04-25, 00:13:00,VALID,919.338,VALID,0,VALID,99.1483,VALID,0,VALID,18.7421,VALID,132,VALID,0,
2009-04-25, 00:14:00,VALID,919.358,VALID,0,VALID,99.601,VALID,0,VALID,18.7548,VALID,132,VALID,0,
2009-04-25, 00:15:00,VALID,919.36,VALID,0,VALID,99.7345,VALID,0.0169808,VALID,18.761,VALID,132,VALID,0,
2009-04-25, 00:16:00,VALID,919.356,VALID,0,VALID,100,VALID,0.0339617,VALID,18.8162,VALID,132,VALID,0,
2009-04-25, 00:17:00,VALID,919.364,VALID,0,VALID,100,VALID,0.0849042,VALID,18.8845,VALID,132,VALID,0,
2009-04-25, 00:18:00,VALID,919.355,VALID,0,VALID,100,VALID,0.0339617,VALID,18.8938,VALID,132,VALID,0,
2009-04-25, 00:19:00,VALID,919.34,VALID,0,VALID,100,VALID,0.0679233,VALID,18.8648,VALID,132,VALID,0,
2009-04-25, 00:20:00,VALID,919.313,VALID,0,VALID,100,VALID,0.0509425,VALID,18.8257,VALID,132,VALID,0,
2009-04-25, 00:21:00,VALID,919.29,VALID,0,VALID,100,VALID,0.0679233,VALID,18.9227,VALID,130,VALID,0,
2009-04-25, 00:22:00,VALID,919.284,VALID,0,VALID,100,VALID,0,VALID,19.0038,VALID,119,VALID,0,
2009-04-25, 00:23:00,VALID,919.267,VALID,0,VALID,100,VALID,0.0169808,VALID,19.0587,VALID,116,VALID,0,
2009-04-25, 00:24:00,VALID,919.254,VALID,0,VALID,100,VALID,0.0509425,VALID,19.0852,VALID,116,VALID,0,
2009-04-25, 00:25:00,VALID,919.233,VALID,0,VALID,100,VALID,0.0679233,VALID,19.1303,VALID,116,VALID,0,
2009-04-25, 00:26:00,VALID,919.218,VALID,0,VALID,100,VALID,0.101885,VALID,19.1463,VALID,116,VALID,0,
2009-04-25, 00:27:00,VALID,919.217,VALID,0,VALID,100,VALID,0.0849042,VALID,19.1563,VALID,116,VALID,0,
2009-04-25, 00:28:00,VALID,919.212,VALID,0,VALID,100,VALID,0.0509425,VALID,19.1109,VALID,116,VALID,0,
2009-04-25, 00:29:00,VALID,919.217,VALID,0,VALID,100,VALID,0.0339617,VALID,19.0849,VALID,116,VALID,0,
2009-04-25, 00:30:00,VALID,919.204,VALID,0,VALID,100,VALID,0.0509425,VALID,19.1301,VALID,116,VALID,0,
2009-04-25, 00:31:00,VALID,919.197,VALID,0,VALID,100,VALID,0.0169808,VALID,19.1952,VALID,116,VALID,0,
2009-04-25, 00:32:00,VALID,919.198,VALID,0,VALID,100,VALID,0,VALID,19.2277,VALID,116,VALID,0,
2009-04-25, 00:33:00,VALID,919.189,VALID,0,VALID,100,VALID,0.0339617,VALID,19.2436,VALID,116,VALID,0,
2009-04-25, 00:34:00,VALID,919.194,VALID,0,VALID,100,VALID,0.0679233,VALID,19.2696,VALID,114,VALID,0,
2009-04-25, 00:35:00,VALID,919.191,VALID,0,VALID,100,VALID,0.0679233,VALID,19.2761,VALID,111,VALID,0,
2009-04-25, 00:36:00,VALID,919.192,VALID,0,VALID,100,VALID,0.101885,VALID,19.2471,VALID,110,VALID,0,
2009-04-25, 00:37:00,VALID,919.183,VALID,0,VALID,100,VALID,-0.0679233,VALID,19.2099,VALID,107,VALID,0,
2009-04-25, 00:38:00,VALID,919.169,VALID,0,VALID,99.9624,VALID,-0.0679233,VALID,19.1802,VALID,99,VALID,0.234566,
2009-04-25, 00:39:00,VALID,919.185,VALID,0,VALID,99.9621,VALID,-0.0679233,VALID,19.1388,VALID,93,VALID,0.00887784,
2009-04-25, 00:40:00,VALID,919.148,VALID,0,VALID,100,VALID,-0.0679233,VALID,19.1902,VALID,95,VALID,0,
2009-04-25, 00:41:00,VALID,919.131,VALID,0,VALID,100,VALID,-0.0679233,VALID,19.2062,VALID,94,VALID,0,
2009-04-25, 00:42:00,VALID,919.113,VALID,0,VALID,99.8408,VALID,-0.0849042,VALID,19.0864,VALID,91,VALID,0,
2009-04-25, 00:43:00,VALID,919.106,VALID,0,VALID,100,VALID,-0.0339617,VALID,19.1093,VALID,96,VALID,0,
2009-04-25, 00:44:00,VALID,919.11,VALID,0,VALID,99.9374,VALID,-0.0679233,VALID,19.0315,VALID,96,VALID,0,
2009-04-25, 00:45:00,VALID,919.102,VALID,0,VALID,99.8789,VALID,-0.0169808,VALID,18.9569,VALID,97,VALID,0,
2009-04-25, 00:46:00,VALID,919.096,VALID,0,VALID,100,VALID,-0.0339617,VALID,18.9728,VALID,101,VALID,0.0970982,
2009-04-25, 00:47:00,VALID,919.081,VALID,0,VALID,100,VALID,-0.0339617,VALID,18.9659,VALID,116,VALID,0.0883557,
2009-04-25, 00:48:00,VALID,919.096,VALID,0,VALID,100,VALID,-0.0679233,VALID,18.9274,VALID,116,VALID,0,
2009-04-25, 00:49:00,VALID,919.091,VALID,0,VALID,100,VALID,-0.0509425,VALID,18.908,VALID,120,VALID,0,
2009-04-25, 00:50:00,VALID,919.083,VALID,0,VALID,100,VALID,-0.0509425,VALID,18.908,VALID,121,VALID,0,
2009-04-25, 00:51:00,VALID,919.063,VALID,0,VALID,100,VALID,-0.0509425,VALID,18.8985,VALID,122,VALID,0,
2009-04-25, 00:52:00,VALID,919.062,VALID,0,VALID,100,VALID,-0.0849042,VALID,18.8885,VALID,125,VALID,0,
2009-04-25, 00:53:00,VALID,919.041,VALID,0,VALID,100,VALID,-0.0509425,VALID,18.8498,VALID,125,VALID,0.0560547,
2009-04-25, 00:54:00,VALID,919.053,VALID,0,VALID,100,VALID,-0.0849042,VALID,18.8303,VALID,124,VALID,0,
2009-04-25, 00:55:00,VALID,919.048,VALID,0,VALID,100,VALID,-0.0679233,VALID,18.876,VALID,124,VALID,0,
2009-04-25, 00:56:00,VALID,919.039,VALID,0,VALID,100,VALID,-0.0849042,VALID,18.8853,VALID,131,VALID,0,
2009-04-25, 00:57:00,VALID,919.047,VALID,0,VALID,100,VALID,-0.0509425,VALID,18.8725,VALID,133,VALID,0,
2009-04-25, 00:58:00,VALID,919.022,VALID,0,VALID,100,VALID,-0.0679233,VALID,18.8528,VALID,133,VALID,0,
2009-04-25, 00:59:00,VALID,919.016,VALID,0,VALID,100,VALID,-0.0849042,VALID,18.8728,VALID,119,VALID,0,
2009-04-25, 01:00:00,VALID,918.995,VALID,0,VALID,100,VALID,-0.0849042,VALID,18.7462,VALID,114,VALID,0,
2009-04-25, 01:01:00,VALID,918.95,VALID,0,VALID,100,VALID,-0.0339617,VALID,18.7298,VALID,114,VALID,0,
2009-04-25, 01:02:00,VALID,918.92,VALID,0,VALID,100,VALID,-0.0509425,VALID,18.7815,VALID,114,VALID,0,
2009-04-25, 01:03:00,VALID,918.879,VALID,0,VALID,100,VALID,-0.0679233,VALID,18.7618,VALID,114,VALID,0,
2009-04-25, 01:04:00,VALID,918.844,VALID,0,VALID,100,VALID,-0.0509425,VALID,18.762,VALID,113,VALID,0,
2009-04-25, 01:05:00,VALID,918.821,VALID,0,VALID,100,VALID,-0.0339617,VALID,18.7101,VALID,113,VALID,0,
2009-04-25, 01:06:00,VALID,918.808,VALID,0,VALID,100,VALID,-0.0679233,VALID,18.6872,VALID,113,VALID,0,
2009-04-25, 01:07:00,VALID,918.762,VALID,0,VALID,100,VALID,-0.0169808,VALID,18.6777,VALID,113,VALID,0,
2009-04-25, 01:08:00,VALID,918.724,VALID,0,VALID,100,VALID,-0.0339617,VALID,18.6712,VALID,116,VALID,0,
2009-04-25, 01:09:00,VALID,918.701,VALID,0,VALID,100,VALID,-0.0339617,VALID,18.639,VALID,116,VALID,0,
2009-04-25, 01:10:00,VALID,918.671,VALID,0,VALID,100,VALID,-0.0509425,VALID,18.6225,VALID,119,VALID,0,
2009-04-25, 01:11:00,VALID,918.643,VALID,0,VALID,100,VALID,-0.0849042,VALID,18.6095,VALID,131,VALID,0,
2009-04-25, 01:12:00,VALID,918.63,VALID,0,VALID,100,VALID,-0.0679233,VALID,18.6135,VALID,135,VALID,0,
2009-04-25, 01:13:00,VALID,918.598,VALID,0,VALID,100,VALID,-0.0509425,VALID,18.5801,VALID,135,VALID,0,
2009-04-25, 01:14:00,VALID,918.592,VALID,0,VALID,100,VALID,-0.0679233,VALID,18.6095,VALID,141,VALID,0,
2009-04-25, 01:15:00,VALID,918.564,VALID,0,VALID,100,VALID,-0.0509425,VALID,18.6125,VALID,160,VALID,0,
2009-04-25, 01:16:00,VALID,918.558,VALID,0,VALID,100,VALID,-0.0339617,VALID,18.6225,VALID,160,VALID,0,
2009-04-25, 01:17:00,VALID,918.563,VALID,0,VALID,100,VALID,-0.0169808,VALID,18.6385,VALID,155,VALID,0,
2009-04-25, 01:18:00,VALID,918.532,VALID,0,VALID,100,VALID,0,VALID,18.6452,VALID,157,VALID,0,
2009-04-25, 01:19:00,VALID,918.529,VALID,0,VALID,100,VALID,-0.0509425,VALID,18.629,VALID,150,VALID,0,
2009-04-25, 01:20:00,VALID,918.515,VALID,0,VALID,100,VALID,-0.0339617,VALID,18.6063,VALID,148,VALID,0,
2009-04-25, 01:21:00,VALID,918.487,VALID,0,VALID,100,VALID,-0.0679233,VALID,18.6031,VALID,148,VALID,0,
2009-04-25, 01:22:00,VALID,918.485,VALID,0,VALID,100,VALID,-0.0169808,VALID,18.5966,VALID,148,VALID,0,
2009-04-25, 01:23:00,VALID,918.476,VALID,0,VALID,100,VALID,-0.0339617,VALID,18.619,VALID,151,VALID,0,
2009-04-25, 01:24:00,VALID,918.467,VALID,0,VALID,100,VALID,-0.0679233,VALID,18.6515,VALID,163,VALID,0,
2009-04-25, 01:25:00,VALID,918.455,VALID,0,VALID,100,VALID,-0.0509425,VALID,18.6774,VALID,161,VALID,0,
2009-04-25, 01:26:00,VALID,918.446,VALID,0,VALID,100,VALID,-0.0509425,VALID,18.6874,VALID,161,VALID,0,
2009-04-25, 01:27:00,VALID,918.442,VALID,0,VALID,100,VALID,-0.101885,VALID,18.6774,VALID,161,VALID,0,
2009-04-25, 01:28:00,VALID,918.443,VALID,0,VALID,100,VALID,-0.101885,VALID,18.6489,VALID,161,VALID,0,
2009-04-25, 01:29:00,VALID,918.431,VALID,0,VALID,100,VALID,-0.0509425,VALID,18.5966,VALID,161,VALID,0,
2009-04-25, 01:30:00,VALID,918.42,VALID,0,VALID,100,VALID,-0.101885,VALID,18.5157,VALID,162,VALID,0,
2009-04-25, 01:31:00,VALID,918.393,VALID,0,VALID,100,VALID,-0.101885,VALID,18.4379,VALID,169,VALID,0,
2009-04-25, 01:32:00,VALID,918.387,VALID,0,VALID,100,VALID,-0.0509425,VALID,18.4606,VALID,183,VALID,0,
2009-04-25, 01:33:00,VALID,918.393,VALID,0,VALID,100,VALID,-0.0679233,VALID,18.4738,VALID,183,VALID,0,
2009-04-25, 01:34:00,VALID,918.391,VALID,0,VALID,100,VALID,-0.0679233,VALID,18.4573,VALID,182,VALID,0,
2009-04-25, 01:35:00,VALID,918.38,VALID,0,VALID,100,VALID,-0.0849042,VALID,18.4766,VALID,167,VALID,0,
2009-04-25, 01:36:00,VALID,918.371,VALID,0,VALID,100,VALID,-0.0339617,VALID,18.5289,VALID,165,VALID,0,
2009-04-25, 01:37:00,VALID,918.377,VALID,0,VALID,100,VALID,-0.0339617,VALID,18.5639,VALID,162,VALID,0,
2009-04-25, 01:38:00,VALID,918.356,VALID,0,VALID,100,VALID,-0.0169808,VALID,18.616,VALID,162,VALID,0,
2009-04-25, 01:39:00,VALID,918.37,VALID,0,VALID,100,VALID,-0.0339617,VALID,18.6545,VALID,165,VALID,0,
2009-04-25, 01:40:00,VALID,918.369,VALID,0,VALID,100,VALID,-0.0169808,VALID,18.6774,VALID,168,VALID,0,
2009-04-25, 01:41:00,VALID,918.361,VALID,0,VALID,100,VALID,-0.0509425,VALID,18.6837,VALID,168,VALID,0,
2009-04-25, 01:42:00,VALID,918.363,VALID,0,VALID,100,VALID,-0.0169808,VALID,18.6869,VALID,152,VALID,0,
2009-04-25, 01:43:00,VALID,918.365,VALID,0,VALID,100,VALID,-0.0509425,VALID,18.6969,VALID,145,VALID,0,
2009-04-25, 01:44:00,VALID,918.372,VALID,0,VALID,100,VALID,-0.0169808,VALID,18.7064,VALID,145,VALID,0,
2009-04-25, 01:45:00,VALID,918.38,VALID,0,VALID,100,VALID,-0.0679233,VALID,18.7358,VALID,148,VALID,0,
2009-04-25, 01:46:00,VALID,918.385,VALID,0,VALID,100,VALID,-0.0169808,VALID,18.7326,VALID,155,VALID,0,
2009-04-25, 01:47:00,VALID,918.394,VALID,0,VALID,100,VALID,-0.0509425,VALID,18.739,VALID,156,VALID,0,
2009-04-25, 01:48:00,VALID,918.407,VALID,0,VALID,100,VALID,-0.0169808,VALID,18.765,VALID,157,VALID,0,
2009-04-25, 01:49:00,VALID,918.403,VALID,0,VALID,100,VALID,-0.0509425,VALID,18.765,VALID,157,VALID,0,
2009-04-25, 01:50:00,VALID,918.399,VALID,0,VALID,100,VALID,-0.0169808,VALID,18.7817,VALID,156,VALID,0,
2009-04-25, 01:51:00,VALID,918.383,VALID,0,VALID,100,VALID,-0.0339617,VALID,18.7548,VALID,155,VALID,0,
2009-04-25, 01:52:00,VALID,918.368,VALID,0,VALID,100,VALID,-0.0849042,VALID,18.739,VALID,150,VALID,0,
2009-04-25, 01:53:00,VALID,918.333,VALID,0,VALID,100,VALID,-0.0169808,VALID,18.7421,VALID,150,VALID,0,
2009-04-25, 01:54:00,VALID,918.306,VALID,0,VALID,100,VALID,-0.0169808,VALID,18.7358,VALID,146,VALID,0,
2009-04-25, 01:55:00,VALID,918.283,VALID,0,VALID,100,VALID,-0.0339617,VALID,18.7036,VALID,142,VALID,0,
2009-04-25, 01:56:00,VALID,918.267,VALID,0,VALID,100,VALID,-0.0169808,VALID,18.6804,VALID,142,VALID,0,
2009-04-25, 01:57:00,VALID,918.246,VALID,0,VALID,100,VALID,-0.0169808,VALID,18.6482,VALID,129,VALID,0,
2009-04-25, 01:58:00,VALID,918.235,VALID,0,VALID,100,VALID,-0.0169808,VALID,18.6644,VALID,125,VALID,0,
2009-04-25, 01:59:00,VALID,918.217,VALID,0,VALID,100,VALID,-0.0509425,VALID,18.6837,VALID,121,VALID,0,
2009-04-25, 02:00:00,VALID,918.198,VALID,0,VALID,100,VALID,-0.0339617,VALID,18.7099,VALID,119,VALID,0,
2009-04-25, 02:01:00,VALID,918.183,VALID,0,VALID,100,VALID,-0.0339617,VALID,18.7228,VALID,124,VALID,0,
2009-04-25, 02:02:00,VALID,918.18,VALID,0,VALID,100,VALID,-0.0169808,VALID,18.7129,VALID,124,VALID,0,
2009-04-25, 02:03:00,VALID,918.139,VALID,0,VALID,100,VALID,-0.0339617,VALID,18.6837,VALID,118,VALID,0.029212,
2009-04-25, 02:04:00,VALID,918.113,VALID,0,VALID,100,VALID,-0.0679233,VALID,18.6712,VALID,119,VALID,0.0685976,
2009-04-25, 02:05:00,VALID,918.085,VALID,0,VALID,100,VALID,-0.0509425,VALID,18.642,VALID,122,VALID,0.0119141,
2009-04-25, 02:06:00,VALID,918.057,VALID,0,VALID,100,VALID,-0.0849042,VALID,18.5831,VALID,122,VALID,0.00145349,
2009-04-25, 02:07:00,VALID,918.019,VALID,0,VALID,100,VALID,0,VALID,18.5528,VALID,130,VALID,0.0388765,
2009-04-25, 02:08:00,VALID,917.995,VALID,0,VALID,100,VALID,0.0339617,VALID,18.5433,VALID,141,VALID,0.0691964,
2009-04-25, 02:09:00,VALID,917.974,VALID,0,VALID,100,VALID,0.0169808,VALID,18.5009,VALID,146,VALID,0,
2009-04-25, 02:10:00,VALID,917.956,VALID,0,VALID,100,VALID,0.0339617,VALID,18.4782,VALID,150,VALID,0.0081936,
2009-04-25, 02:11:00,VALID,917.952,VALID,0,VALID,100,VALID,0.0509425,VALID,18.4784,VALID,155,VALID,0.00234375,
2009-04-25, 02:12:00,VALID,917.93,VALID,0,VALID,100,VALID,0.0509425,VALID,18.4879,VALID,156,VALID,0,
2009-04-25, 02:13:00,VALID,917.929,VALID,0,VALID,100,VALID,0.0339617,VALID,18.4847,VALID,159,VALID,0,
2009-04-25, 02:14:00,VALID,917.928,VALID,0,VALID,100,VALID,0.0849042,VALID,18.468,VALID,154,VALID,0,
2009-04-25, 02:15:00,VALID,917.914,VALID,0,VALID,100,VALID,0.0509425,VALID,18.4165,VALID,145,VALID,0,
2009-04-25, 02:16:00,VALID,917.912,VALID,0,VALID,100,VALID,0.0169808,VALID,18.3744,VALID,133,VALID,0,
2009-04-25, 02:17:00,VALID,917.91,VALID,0,VALID,100,VALID,0.0339617,VALID,18.3874,VALID,136,VALID,0,
2009-04-25, 02:18:00,VALID,917.933,VALID,0,VALID,100,VALID,0.0169808,VALID,18.3941,VALID,140,VALID,0.0546875,
2009-04-25, 02:19:00,VALID,917.935,VALID,0,VALID,100,VALID,-0.0339617,VALID,18.3755,VALID,137,VALID,0,
2009-04-25, 02:20:00,VALID,917.95,VALID,0,VALID,100,VALID,-0.0169808,VALID,18.3464,VALID,137,VALID,0,
2009-04-25, 02:21:00,VALID,917.936,VALID,0,VALID,100,VALID,-0.0169808,VALID,18.3239,VALID,137,VALID,0,
2009-04-25, 02:22:00,VALID,917.906,VALID,0,VALID,100,VALID,-0.0169808,VALID,18.3169,VALID,137,VALID,0,
2009-04-25, 02:23:00,VALID,917.872,VALID,0,VALID,100,VALID,-0.0339617,VALID,18.3299,VALID,137,VALID,0,
2009-04-25, 02:24:00,VALID,917.819,VALID,0,VALID,100,VALID,-0.101885,VALID,18.2945,VALID,137,VALID,0,
2009-04-25, 02:25:00,VALID,917.773,VALID,0,VALID,100,VALID,-0.0339617,VALID,18.2817,VALID,137,VALID,0,
2009-04-25, 02:26:00,VALID,917.739,VALID,0,VALID,100,VALID,-0.0849042,VALID,18.2718,VALID,137,VALID,0,
2009-04-25, 02:27:00,VALID,917.715,VALID,0,VALID,100,VALID,-0.0339617,VALID,18.2947,VALID,137,VALID,0,
2009-04-25, 02:28:00,VALID,917.694,VALID,0,VALID,100,VALID,-0.0679233,VALID,18.3433,VALID,137,VALID,0,
2009-04-25, 02:29:00,VALID,917.692,VALID,0,VALID,100,VALID,-0.0679233,VALID,18.3855,VALID,137,VALID,0,
2009-04-25, 02:30:00,VALID,917.693,VALID,0,VALID,100,VALID,-0.0679233,VALID,18.3922,VALID,137,VALID,0,
2009-04-25, 02:31:00,VALID,917.699,VALID,0,VALID,100,VALID,-0.0679233,VALID,18.3596,VALID,137,VALID,0,
2009-04-25, 02:32:00,VALID,917.698,VALID,0,VALID,100,VALID,0,VALID,18.385,VALID,141,VALID,0,
2009-04-25, 02:33:00,VALID,917.684,VALID,0,VALID,100,VALID,-0.0849042,VALID,18.4728,VALID,147,VALID,0,
2009-04-25, 02:34:00,VALID,917.68,VALID,0,VALID,100,VALID,-0.0509425,VALID,18.5085,VALID,145,VALID,0,
2009-04-25, 02:35:00,VALID,917.682,VALID,0,VALID,100,VALID,-0.0679233,VALID,18.525,VALID,151,VALID,0,
2009-04-25, 02:36:00,VALID,917.666,VALID,0,VALID,100,VALID,-0.0169808,VALID,18.5407,VALID,160,VALID,0,
2009-04-25, 02:37:00,VALID,917.658,VALID,0,VALID,100,VALID,-0.0169808,VALID,18.5407,VALID,156,VALID,0,
2009-04-25, 02:38:00,VALID,917.64,VALID,0,VALID,100,VALID,-0.0679233,VALID,18.5574,VALID,161,VALID,0,
2009-04-25, 02:39:00,VALID,917.608,VALID,0,VALID,100,VALID,-0.0849042,VALID,18.5502,VALID,165,VALID,0,
2009-04-25, 02:40:00,VALID,917.579,VALID,0,VALID,100,VALID,-0.0509425,VALID,18.5509,VALID,165,VALID,0.00130208,
2009-04-25, 02:41:00,VALID,917.555,VALID,0,VALID,100,VALID,-0.0339617,VALID,18.5539,VALID,166,VALID,0,
2009-04-25, 02:42:00,VALID,917.53,VALID,0,VALID,100,VALID,-0.0339617,VALID,18.5996,VALID,163,VALID,0.00503472,
2009-04-25, 02:43:00,VALID,917.512,VALID,0,VALID,100,VALID,-0.0169808,VALID,18.6026,VALID,161,VALID,0,
2009-04-25, 02:44:00,VALID,917.509,VALID,0,VALID,100,VALID,-0.0509425,VALID,18.5669,VALID,152,VALID,0,
2009-04-25, 02:45:00,VALID,917.497,VALID,0,VALID,100,VALID,-0.0679233,VALID,18.515,VALID,151,VALID,0,
2009-04-25, 02:46:00,VALID,917.5,VALID,0,VALID,100,VALID,-0.0509425,VALID,18.4731,VALID,151,VALID,0,
2009-04-25, 02:47:00,VALID,917.497,VALID,0,VALID,100,VALID,-0.0679233,VALID,18.4307,VALID,151,VALID,0,
2009-04-25, 02:48:00,VALID,917.495,VALID,0,VALID,100,VALID,-0.0169808,VALID,18.4527,VALID,146,VALID,0,
2009-04-25, 02:49:00,VALID,917.485,VALID,0,VALID,100,VALID,-0.0509425,VALID,18.4763,VALID,142,VALID,0,
2009-04-25, 02:50:00,VALID,917.481,VALID,0,VALID,100,VALID,-0.0509425,VALID,18.4759,VALID,142,VALID,0,
2009-04-25, 02:51:00,VALID,917.481,VALID,0,VALID,100,VALID,-0.0169808,VALID,18.4893,VALID,139,VALID,0,
2009-04-25, 02:52:00,VALID,917.466,VALID,0,VALID,100,VALID,-0.0339617,VALID,18.4696,VALID,139,VALID,0,
2009-04-25, 02:53:00,VALID,917.45,VALID,0,VALID,100,VALID,0,VALID,18.4596,VALID,139,VALID,0,
2009-04-25, 02:54:00,VALID,917.432,VALID,0,VALID,100,VALID,-0.0509425,VALID,18.4441,VALID,139,VALID,0,
2009-04-25, 02:55:00,VALID,917.424,VALID,0,VALID,100,VALID,-0.0339617,VALID,18.4534,VALID,144,VALID,0.0625,
2009-04-25, 02:56:00,VALID,917.418,VALID,0,VALID,100,VALID,0,VALID,18.4406,VALID,154,VALID,0.00117188,
2009-04-25, 02:57:00,VALID,917.412,VALID,0,VALID,100,VALID,-0.0339617,VALID,18.4207,VALID,155,VALID,0,
2009-04-25, 02:58:00,VALID,917.413,VALID,0,VALID,100,VALID,-0.0169808,VALID,18.392,VALID,155,VALID,0.0931641,
2009-04-25, 02:59:00,VALID,917.421,VALID,0,VALID,100,VALID,-0.0509425,VALID,18.3498,VALID,150,VALID,0.00502232,
2009-04-25, 03:00:00,VALID,917.425,VALID,0,VALID,100,VALID,-0.0509425,VALID,18.3304,VALID,149,VALID,0,
2009-04-25, 03:01:00,VALID,917.448,VALID,0,VALID,100,VALID,-0.0339617,VALID,18.3012,VALID,146,VALID,0,
2009-04-25, 03:02:00,VALID,917.455,VALID,0,VALID,100,VALID,-0.0169808,VALID,18.265,VALID,146,VALID,0,
2009-04-25, 03:03:00,VALID,917.453,VALID,0,VALID,100,VALID,-0.0849042,VALID,18.2493,VALID,144,VALID,0,
2009-04-25, 03:04:00,VALID,917.461,VALID,0,VALID,100,VALID,-0.0509425,VALID,18.2266,VALID,142,VALID,0,
2009-04-25, 03:05:00,VALID,917.463,VALID,0,VALID,100,VALID,-0.0339617,VALID,18.2071,VALID,136,VALID,0,
2009-04-25, 03:06:00,VALID,917.459,VALID,0,VALID,100,VALID,0,VALID,18.2002,VALID,140,VALID,0.00053267,
2009-04-25, 03:07:00,VALID,917.459,VALID,0,VALID,100,VALID,-0.0169808,VALID,18.2328,VALID,137,VALID,0.275977,
2009-04-25, 03:08:00,VALID,917.447,VALID,0,VALID,100,VALID,-0.0509425,VALID,18.2556,VALID,130,VALID,0.00241815,
2009-04-25, 03:09:00,VALID,917.441,VALID,0,VALID,100,VALID,-0.0339617,VALID,18.2977,VALID,132,VALID,0.115945,
2009-04-25, 03:10:00,VALID,917.449,VALID,0,VALID,100,VALID,-0.0339617,VALID,18.3142,VALID,137,VALID,0.0582031,
2009-04-25, 03:11:00,VALID,917.438,VALID,0,VALID,100,VALID,-0.0339617,VALID,18.3109,VALID,135,VALID,0,
2009-04-25, 03:12:00,VALID,917.422,VALID,0,VALID,100,VALID,-0.0169808,VALID,18.2979,VALID,144,VALID,0.00078125,
2009-04-25, 03:13:00,VALID,917.428,VALID,0,VALID,100,VALID,-0.0679233,VALID,18.3012,VALID,140,VALID,0.0356326,
2009-04-25, 03:14:00,VALID,917.422,VALID,0,VALID,100,VALID,-0.0339617,VALID,18.3332,VALID,142,VALID,0.188859,
2009-04-25, 03:15:00,VALID,917.425,VALID,0,VALID,100,VALID,0,VALID,18.3753,VALID,148,VALID,0.239583,
2009-04-25, 03:16:00,VALID,917.424,VALID,0,VALID,100,VALID,-0.0169808,VALID,18.4108,VALID,142,VALID,0.267773,
2009-04-25, 03:17:00,VALID,917.444,VALID,0,VALID,100,VALID,-0.0169808,VALID,18.4374,VALID,143,VALID,0.129972,
2009-04-25, 03:18:00,VALID,917.451,VALID,0,VALID,100,VALID,-0.0169808,VALID,18.4634,VALID,132,VALID,0.169141,
2009-04-25, 03:19:00,VALID,917.474,VALID,0,VALID,100,VALID,-0.0679233,VALID,18.4761,VALID,146,VALID,0.0302527,
2009-04-25, 03:20:00,VALID,917.487,VALID,0,VALID,100,VALID,-0.0339617,VALID,18.4733,VALID,139,VALID,0.0148026,
2009-04-25, 03:21:00,VALID,917.483,VALID,0,VALID,100,VALID,-0.0169808,VALID,18.4731,VALID,137,VALID,0.0574128,
2009-04-25, 03:22:00,VALID,917.482,VALID,0,VALID,100,VALID,-0.0169808,VALID,18.4661,VALID,129,VALID,0,
2009-04-25, 03:23:00,VALID,917.468,VALID,0,VALID,100,VALID,-0.0339617,VALID,18.4731,VALID,133,VALID,0.150765,
2009-04-25, 03:24:00,VALID,917.461,VALID,0,VALID,100,VALID,-0.0339617,VALID,18.4724,VALID,131,VALID,0.343023,
2009-04-25, 03:25:00,VALID,917.465,VALID,0,VALID,100,VALID,-0.0169808,VALID,18.4592,VALID,127,VALID,0.129724,
2009-04-25, 03:26:00,VALID,917.475,VALID,0,VALID,100,VALID,-0.0339617,VALID,18.4925,VALID,128,VALID,0.154474,
2009-04-25, 03:27:00,VALID,917.507,VALID,0,VALID,100,VALID,0,VALID,18.4988,VALID,131,VALID,0.0952035,
2009-04-25, 03:28:00,VALID,917.535,VALID,0,VALID,100,VALID,-0.0169808,VALID,18.5148,VALID,128,VALID,0.133203,
2009-04-25, 03:29:00,VALID,917.559,VALID,0,VALID,100,VALID,-0.0169808,VALID,18.5474,VALID,126,VALID,0,
2009-04-25, 03:30:00,VALID,917.576,VALID,0,VALID,100,VALID,-0.0509425,VALID,18.5442,VALID,127,VALID,0,
2009-04-25, 03:31:00,VALID,917.585,VALID,0,VALID,100,VALID,-0.0679233,VALID,18.5574,VALID,134,VALID,0,
2009-04-25, 03:32:00,VALID,917.595,VALID,0,VALID,100,VALID,-0.0679233,VALID,18.5739,VALID,137,VALID,0,
2009-04-25, 03:33:00,VALID,917.57,VALID,0,VALID,100,VALID,-0.0509425,VALID,18.5898,VALID,133,VALID,0,
2009-04-25, 03:34:00,VALID,917.585,VALID,0,VALID,100,VALID,-0.0679233,VALID,18.5931,VALID,141,VALID,0,
2009-04-25, 03:35:00,VALID,917.594,VALID,0,VALID,100,VALID,-0.0509425,VALID,18.5929,VALID,157,VALID,0,
2009-04-25, 03:36:00,VALID,917.602,VALID,0,VALID,100,VALID,0,VALID,18.6253,VALID,147,VALID,0,
2009-04-25, 03:37:00,VALID,917.624,VALID,0,VALID,100,VALID,-0.0679233,VALID,18.6318,VALID,154,VALID,0,
2009-04-25, 03:38:00,VALID,917.615,VALID,0,VALID,100,VALID,0,VALID,18.6575,VALID,162,VALID,0,
2009-04-25, 03:39:00,VALID,917.605,VALID,0,VALID,100,VALID,-0.0849042,VALID,18.6966,VALID,165,VALID,0,
2009-04-25, 03:40:00,VALID,917.593,VALID,0,VALID,100,VALID,-0.0339617,VALID,18.7286,VALID,155,VALID,0,
2009-04-25, 03:41:00,VALID,917.581,VALID,0,VALID,100,VALID,-0.0339617,VALID,18.7513,VALID,157,VALID,0,
2009-04-25, 03:42:00,VALID,917.573,VALID,0,VALID,100,VALID,-0.0169808,VALID,18.7553,VALID,158,VALID,0,
2009-04-25, 03:43:00,VALID,917.567,VALID,0,VALID,100,VALID,-0.0339617,VALID,18.7319,VALID,158,VALID,0,
2009-04-25, 03:44:00,VALID,917.562,VALID,0,VALID,100,VALID,-0.0169808,VALID,18.7194,VALID,158,VALID,0,
2009-04-25, 03:45:00,VALID,917.555,VALID,0,VALID,100,VALID,-0.0339617,VALID,18.7034,VALID,158,VALID,0,
2009-04-25, 03:46:00,VALID,917.54,VALID,0,VALID,100,VALID,-0.0509425,VALID,18.6807,VALID,158,VALID,0,